FW6650 Weather Reports


time (UTC)temp
C
wind
direction
speed
KPH
gust
KPH
rain 1hr
cm
rain 24hr
cm
rain mn
cm
humidity
%
barometer
mb
20260507194539 18 28 1.6 6.4 0.00 0.00 0.00 48 1017.3
20260507194025 18 27 3.2 6.4 0.00 0.00 0.00 47 1017.2
20260507193522 18 360 1.6 4.8 0.00 0.00 0.00 47 1017.2
20260507193037 18 0 0.0 0.0 0.00 0.00 0.00 48 1017.2
20260507192523 18 0 0.0 0.0 0.00 0.00 0.00 48 1017.2
20260507192022 18 0 0.0 1.6 0.00 0.00 0.00 48 1017.2
20260507191533 18 0 0.0 4.8 0.00 0.00 0.00 47 1017.2
20260507191025 18 360 0.0 4.8 0.00 0.00 0.00 47 1017.2
20260507190524 18 360 1.6 6.4 0.00 0.00 0.00 46 1017.1
20260507190038 18 360 3.2 6.4 0.00 0.00 0.00 46 1017.2
20260507185527 18 360 1.6 6.4 0.00 0.00 0.00 47 1017.3
20260507185027 18 360 1.6 6.4 0.00 0.00 0.00 49 1017.4
20260507184541 18 360 3.2 6.4 0.00 0.00 0.00 49 1017.3
20260507184029 19 13 1.6 4.8 0.00 0.00 0.00 48 1017.2
20260507183525 19 0 0.0 3.2 0.00 0.00 0.00 48 1017.1
20260507183036 19 15 0.0 4.8 0.00 0.00 0.00 48 1017.0
20260507182523 19 15 0.0 4.8 0.00 0.00 0.00 47 1017.0
20260507182026 19 0 0.0 4.8 0.00 0.00 0.00 47 1017.1
20260507181533 19 0 1.6 6.4 0.00 0.00 0.00 48 1017.0
20260507181026 19 0 0.0 6.4 0.00 0.00 0.00 48 1017.0
20260507180528 19 13 1.6 6.4 0.00 0.00 0.00 48 1017.0
20260507180033 19 294 0.0 3.2 0.00 0.00 0.00 48 1017.0
20260507175527 19 0 0.0 6.4 0.00 0.00 0.00 47 1017.1
20260507175027 19 293 1.6 6.4 0.00 0.00 0.00 49 1017.0
20260507174546 19 282 1.6 4.8 0.00 0.00 0.00 49 1016.8
20260507174027 19 281 3.2 6.4 0.00 0.00 0.00 49 1016.8
20260507173529 19 0 0.0 6.4 0.00 0.00 0.00 50 1017.0
20260507173040 19 278 3.2 6.4 0.00 0.00 0.00 50 1016.9
20260507172526 19 277 1.6 11.3 0.00 0.00 0.00 49 1016.8
20260507172027 19 0 3.2 11.3 0.00 0.00 0.00 49 1016.9
20260507171550 19 268 4.8 12.9 0.00 0.00 0.00 50 1016.8
20260507171028 20 278 6.4 12.9 0.00 0.00 0.00 50 1016.7
20260507170528 20 254 4.8 9.7 0.00 0.00 0.00 50 1016.6
20260507170035 20 229 4.8 9.7 0.00 0.00 0.00 48 1016.3
20260507165528 20 109 0.0 12.9 0.00 0.00 0.00 47 1016.2
20260507165027 20 109 4.8 19.3 0.00 0.00 0.00 48 1016.1
20260507164538 20 69 8.0 19.3 0.00 0.00 0.00 51 1016.0
20260507164028 20 85 8.0 19.3 0.00 0.00 0.00 51 1016.2
20260507163528 20 92 6.4 17.7 0.00 0.00 0.00 49 1016.3
20260507163033 20 85 4.8 12.9 0.00 0.00 0.00 47 1016.3
20260507162527 20 360 4.8 12.9 0.00 0.00 0.00 45 1016.5
20260507162027 21 360 3.2 12.9 0.00 0.00 0.00 43 1016.6
20260507161545 21 360 6.4 12.9 0.00 0.00 0.00 41 1016.5
20260507161028 21 360 1.6 4.8 0.00 0.00 0.00 36 1016.5
20260507160527 21 0 0.0 4.8 0.00 0.00 0.00 34 1016.5
20260507160059 22 360 0.0 6.4 0.00 0.00 0.00 29 1016.4
20260507155527 22 214 1.6 12.9 0.00 0.00 0.00 30 1016.5
20260507155028 22 0 3.2 16.1 0.00 0.00 0.00 29 1016.6
20260507154536 22 360 6.4 19.3 0.00 0.00 0.00 29 1016.6
20260507154028 22 247 6.4 19.3 0.00 0.00 0.00 29 1016.7
20260507153527 22 229 6.4 17.7 0.00 0.00 0.00 29 1016.6
20260507153036 22 267 11.3 19.3 0.00 0.00 0.00 30 1016.7
20260507152527 22 243 9.7 22.5 0.00 0.00 0.00 30 1016.8
20260507152028 22 215 11.3 22.5 0.00 0.00 0.00 30 1016.8
20260507151535 22 223 9.7 20.9 0.00 0.00 0.00 31 1016.7
20260507151027 22 249 11.3 20.9 0.00 0.00 0.00 30 1016.7
20260507150530 23 252 8.0 17.7 0.00 0.00 0.00 30 1016.7
20260507150039 22 254 9.7 20.9 0.00 0.00 0.00 30 1016.7
20260507145528 22 256 8.0 24.1 0.00 0.00 0.00 31 1016.6
20260507145031 22 233 9.7 24.1 0.00 0.00 0.00 30 1016.7
20260507144537 22 240 16.1 22.5 0.00 0.00 0.00 29 1016.8
20260507144028 23 252 9.7 22.5 0.00 0.00 0.00 30 1016.6
20260507143528 23 241 9.7 20.9 0.00 0.00 0.00 29 1016.7
20260507143042 23 263 11.3 19.3 0.00 0.00 0.00 31 1016.6
20260507142528 23 243 9.7 22.5 0.00 0.00 0.00 31 1016.7
20260507142031 23 211 11.3 24.1 0.00 0.00 0.00 31 1016.8
20260507141542 23 248 11.3 24.1 0.00 0.00 0.00 30 1016.7
20260507141027 23 269 11.3 24.1 0.00 0.00 0.00 29 1016.6
20260507140527 23 265 9.7 27.4 0.00 0.00 0.00 29 1016.4
20260507140046 23 231 14.5 27.4 0.00 0.00 0.00 28 1016.2
20260507135528 24 262 6.4 25.7 0.00 0.00 0.00 28 1016.3
20260507135030 24 259 12.9 25.7 0.00 0.00 0.00 28 1016.2
20260507134536 24 261 8.0 20.9 0.00 0.00 0.00 29 1016.1
20260507134027 24 238 11.3 20.9 0.00 0.00 0.00 27 1016.1
20260507133527 24 257 9.7 17.7 0.00 0.00 0.00 26 1016.0
20260507133034 24 244 4.8 17.7 0.00 0.00 0.00 26 1016.1
20260507132527 24 253 6.4 17.7 0.00 0.00 0.00 26 1016.2
20260507132028 24 262 9.7 17.7 0.00 0.00 0.00 26 1016.0
20260507131605 24 235 6.4 17.7 0.00 0.00 0.00 24 1016.1
20260507131028 23 219 9.7 17.7 0.00 0.00 0.00 29 1016.3
20260507130528 23 266 8.0 17.7 0.00 0.00 0.00 30 1016.2
20260507130035 23 260 8.0 17.7 0.00 0.00 0.00 32 1016.4
20260507125528 23 252 8.0 19.3 0.00 0.00 0.00 32 1016.5
20260507125028 23 241 11.3 19.3 0.00 0.00 0.00 32 1016.6
20260507124550 23 259 8.0 19.3 0.00 0.00 0.00 32 1016.7
20260507124027 23 253 11.3 20.9 0.00 0.00 0.00 31 1016.7
20260507123527 23 272 11.3 20.9 0.00 0.00 0.00 29 1016.8
20260507123041 23 229 8.0 20.9 0.00 0.00 0.00 31 1016.7
20260507122527 23 224 8.0 20.9 0.00 0.00 0.00 31 1016.8
20260507122027 23 240 12.9 24.1 0.00 0.00 0.00 29 1016.9
20260507121536 24 223 12.9 24.1 0.00 0.00 0.00 27 1016.9
20260507121028 24 231 12.9 24.1 0.00 0.00 0.00 25 1017.0
20260507120529 25 213 11.3 22.5 0.00 0.00 0.00 26 1017.0
20260507120040 25 221 9.7 20.9 0.00 0.00 0.00 28 1016.8
20260507115627 25 254 8.0 22.5 0.00 0.00 0.00 25 1016.8
20260507115027 24 240 14.5 22.5 0.00 0.00 0.00 28 1016.8
20260507114539 24 265 12.9 24.1 0.00 0.00 0.00 29 1017.0
20260507114028 23 263 9.7 24.1 0.00 0.00 0.00 35 1017.0
20260507113528 23 243 14.5 24.1 0.00 0.00 0.00 33 1017.0
20260507113102 24 255 11.3 29.0 0.00 0.00 0.00 37 1017.0
20260507112530 24 205 16.1 29.0 0.00 0.00 0.00 34 1017.0
20260507112027 25 244 11.3 32.2 0.00 0.00 0.00 36 1017.1
20260507111536 25 220 9.7 32.2 0.00 0.00 0.00 31 1017.1
20260507111027 25 223 11.3 25.7 0.00 0.00 0.00 28 1017.1
20260507110527 23 268 12.9 25.7 0.00 0.00 0.00 38 1016.8
20260507110044 24 225 14.5 25.7 0.00 0.00 0.00 35 1017.0
20260507105527 25 236 12.9 24.1 0.00 0.00 0.00 32 1017.2
20260507105027 24 264 9.7 27.4 0.00 0.00 0.00 33 1017.1
20260507104556 23 246 17.7 27.4 0.00 0.00 0.00 33 1017.0
20260507104027 24 236 11.3 22.5 0.00 0.00 0.00 40 1016.9
20260507103526 23 240 11.3 20.9 0.00 0.00 0.00 43 1016.7
20260507103040 23 220 8.0 19.3 0.00 0.00 0.00 45 1016.6
20260507102530 23 247 8.0 19.3 0.00 0.00 0.00 47 1016.5
20260507102027 23 249 11.3 19.3 0.00 0.00 0.00 49 1016.6
20260507101536 23 269 6.4 19.3 0.00 0.00 0.00 51 1016.7
20260507101026 23 259 6.4 19.3 0.00 0.00 0.00 52 1016.7
20260507100526 23 250 9.7 19.3 0.00 0.00 0.00 53 1016.7
20260507100043 23 290 9.7 19.3 0.00 0.00 0.00 53 1016.8
20260507095527 23 217 6.4 17.7 0.00 0.00 0.00 53 1016.8
20260507095030 23 247 8.0 19.3 0.00 0.00 0.00 53 1016.8
20260507094537 23 277 8.0 19.3 0.00 0.00 0.00 53 1016.8
20260507094028 23 222 8.0 17.7 0.00 0.00 0.00 53 1016.7
20260507093527 23 218 4.8 16.1 0.00 0.00 0.00 51 1016.8
20260507093038 23 213 8.0 16.1 0.00 0.00 0.00 48 1016.8
20260507092527 23 300 3.2 16.1 0.00 0.00 0.00 47 1016.7
20260507092027 23 231 6.4 16.1 0.00 0.00 0.00 48 1016.7
20260507091543 23 271 9.7 17.7 0.00 0.00 0.00 48 1016.8
20260507091027 23 244 9.7 17.7 0.00 0.00 0.00 47 1016.8
20260507090527 23 236 8.0 16.1 0.00 0.00 0.00 47 1016.6
20260507090040 23 253 3.2 9.7 0.00 0.00 0.00 45 1016.6
20260507085526 23 196 3.2 9.7 0.00 0.00 0.00 45 1016.7
20260507085027 22 198 0.0 9.7 0.00 0.00 0.00 47 1016.7
20260507084549 23 216 3.2 9.7 0.00 0.00 0.00 46 1016.8
20260507084027 22 238 1.6 8.0 0.00 0.00 0.00 47 1016.8
20260507083527 22 220 1.6 8.0 0.00 0.00 0.00 46 1016.7
20260507083036 22 248 3.2 9.7 0.00 0.00 0.00 47 1016.7
20260507082528 22 281 1.6 9.7 0.00 0.00 0.00 47 1016.7
20260507082027 22 259 1.6 14.5 0.00 0.00 0.00 47 1016.7
20260507081539 22 279 4.8 14.5 0.00 0.00 0.00 48 1016.7
20260507081027 22 272 8.0 14.5 0.00 0.00 0.00 48 1016.7
20260507080526 22 261 4.8 11.3 0.00 0.00 0.00 48 1016.8
20260507080040 22 222 4.8 9.7 0.00 0.00 0.00 47 1016.7
20260507075527 22 232 1.6 11.3 0.00 0.00 0.00 47 1016.7
20260507075027 21 241 4.8 11.3 0.00 0.00 0.00 46 1016.7
20260507074541 22 0 0.0 6.4 0.00 0.00 0.00 46 1016.6
20260507074026 21 262 1.6 6.4 0.00 0.00 0.00 47 1016.6
20260507073526 21 265 1.6 9.7 0.00 0.00 0.00 48 1016.6
20260507073037 21 265 3.2 9.7 0.00 0.00 0.00 48 1016.4
20260507072527 21 262 1.6 6.4 0.00 0.00 0.00 49 1016.4
20260507072026 21 286 1.6 6.4 0.00 0.00 0.00 50 1016.4
20260507071537 21 280 0.0 6.4 0.00 0.00 0.00 48 1016.5
20260507071027 21 276 1.6 6.4 0.00 0.00 0.00 51 1016.7
20260507070527 20 0 0.0 6.4 0.00 0.00 0.00 51 1016.6
20260507070033 20 268 1.6 9.7 0.00 0.00 0.00 51 1016.6
20260507065527 20 269 4.8 9.7 0.00 0.00 0.00 51 1016.7
20260507065027 21 227 1.6 6.4 0.00 0.00 0.00 50 1016.7
20260507064546 21 235 1.6 9.7 0.00 0.00 0.00 49 1016.7
20260507064027 20 242 3.2 9.7 0.00 0.00 0.00 50 1016.5
20260507063528 20 264 1.6 11.3 0.00 0.00 0.00 50 1016.5
20260507063033 20 229 4.8 11.3 0.00 0.00 0.00 49 1016.5
20260507062527 20 244 6.4 11.3 0.00 0.00 0.00 48 1016.5
20260507062027 20 218 6.4 12.9 0.00 0.00 0.00 50 1016.4
20260507061538 20 225 6.4 12.9 0.00 0.00 0.00 53 1016.4
20260507061027 20 241 6.4 12.9 0.00 0.00 0.00 54 1016.3
20260507060527 20 263 3.2 11.3 0.00 0.00 0.00 54 1016.3
20260507060040 20 191 6.4 11.3 0.00 0.00 0.00 53 1016.2
20260507055528 20 185 8.0 11.3 0.00 0.00 0.00 54 1016.1
20260507055028 20 228 4.8 8.0 0.00 0.00 0.00 53 1016.1
20260507054540 20 0 0.0 4.8 0.00 0.00 0.00 55 1015.9
20260507054026 19 0 0.0 4.8 0.00 0.00 0.00 57 1015.8
20260507053526 18 360 1.6 6.4 0.00 0.00 0.00 57 1015.7
20260507053041 18 0 1.6 6.4 0.00 0.00 0.00 58 1015.7
20260507052529 18 5 3.2 6.4 0.00 0.00 0.00 58 1015.7
20260507052027 18 23 3.2 4.8 0.00 0.00 0.00 58 1015.7
20260507051534 18 0 0.0 4.8 0.00 0.00 0.00 59 1015.7
20260507051026 17 0 1.6 4.8 0.00 0.00 0.00 60 1015.7
20260507050526 17 68 1.6 4.8 0.00 0.00 0.00 61 1015.6
20260507050058 17 68 1.6 4.8 0.00 0.00 0.00 61 1015.7
20260507045527 17 68 0.0 4.8 0.00 0.00 0.00 63 1015.8
20260507045027 16 69 1.6 4.8 0.00 0.00 0.00 63 1015.8
20260507044546 16 69 1.6 3.2 0.00 0.00 0.00 64 1015.7
20260507044026 16 69 1.6 3.2 0.00 0.00 0.00 65 1015.7
20260507043529 16 70 0.0 3.2 0.00 0.00 0.00 65 1015.7
20260507043033 16 0 0.0 3.2 0.00 0.00 0.00 66 1015.7
20260507042527 16 70 0.0 3.2 0.00 0.00 0.00 66 1015.6
20260507042026 15 0 0.0 0.0 0.00 0.00 0.00 66 1015.6
20260507041537 15 0 0.0 0.0 0.00 0.00 0.00 66 1015.7
20260507041030 15 0 0.0 1.6 0.00 0.00 0.00 67 1015.8
20260507040527 15 0 0.0 6.4 0.00 0.00 0.00 67 1015.8
20260507040039 15 0 0.0 6.4 0.00 0.00 0.00 67 1015.9
20260507035527 15 70 3.2 6.4 0.00 0.00 0.00 68 1015.8
20260507035029 14 67 3.2 6.4 0.00 0.00 0.00 69 1016.0
20260507034539 14 42 1.6 4.8 0.00 0.00 0.00 69 1016.0
20260507034026 14 0 0.0 0.0 0.00 0.00 0.00 69 1015.7
20260507033526 14 0 0.0 0.0 0.00 0.00 0.00 68 1015.7
20260507033040 15 0 0.0 4.8 0.00 0.00 0.00 68 1015.6
20260507032526 15 0 0.0 4.8 0.00 0.00 0.00 68 1015.5
20260507032027 15 40 1.6 4.8 0.00 0.00 0.00 67 1015.5
20260507031536 15 0 0.0 1.6 0.00 0.00 0.00 66 1015.6
20260507031031 15 0 0.0 3.2 0.00 0.00 0.00 66 1015.5
20260507030527 15 0 0.0 3.2 0.00 0.00 0.00 66 1015.5
20260507030038 15 0 0.0 4.8 0.00 0.00 0.00 66 1015.5
20260507025527 15 0 0.0 6.4 0.00 0.00 0.00 66 1015.4
20260507025027 15 27 3.2 6.4 0.00 0.00 0.00 65 1015.4
20260507024546 15 29 3.2 6.4 0.00 0.00 0.00 65 1015.3
20260507024026 15 0 0.0 8.0 0.00 0.00 0.00 64 1015.4
20260507023527 15 0 1.6 8.0 0.00 0.00 0.00 64 1015.3
20260507023038 15 144 3.2 8.0 0.00 0.00 0.00 64 1015.4
20260507022527 15 0 1.6 6.4 0.00 0.00 0.00 63 1015.4
20260507022027 15 208 3.2 9.7 0.00 0.00 0.00 63 1015.3
20260507021547 15 207 3.2 11.3 0.00 0.00 0.00 62 1015.3
20260507021027 15 206 4.8 11.3 0.00 0.00 0.00 63 1015.3
20260507020527 15 188 6.4 11.3 0.00 0.00 0.00 62 1015.2
20260507020036 15 200 6.4 11.3 0.00 0.00 0.00 61 1015.3
20260507015526 15 205 6.4 11.3 0.00 0.00 0.00 61 1015.3
20260507015026 15 194 4.8 11.3 0.00 0.00 0.00 61 1015.2
20260507014540 15 194 6.4 9.7 0.00 0.00 0.00 61 1015.2
20260507014029 15 205 6.4 9.7 0.00 0.00 0.00 61 1015.2
20260507013526 15 198 4.8 8.0 0.00 0.00 0.00 62 1015.1
20260507013038 15 205 3.2 6.4 0.00 0.00 0.00 62 1015.0
20260507012526 15 177 3.2 4.8 0.00 0.00 0.00 62 1015.0
20260507012027 15 176 1.6 4.8 0.00 0.00 0.00 62 1014.9
20260507011538 15 176 1.6 8.0 0.00 0.00 0.00 62 1014.6
20260507011026 15 179 3.2 8.0 0.00 0.00 0.00 62 1014.5
20260507010526 15 192 3.2 6.4 0.00 0.00 0.00 63 1014.5
20260507010042 15 185 3.2 6.4 0.00 0.00 0.00 62 1014.6
20260507005527 15 182 3.2 6.4 0.00 0.00 0.00 62 1014.5
20260507005030 15 159 1.6 4.8 0.00 0.00 0.00 62 1014.5
20260507004535 15 88 1.6 4.8 0.00 0.00 0.00 62 1014.5
20260507004026 16 55 0.0 4.8 0.00 0.00 0.00 61 1014.5
20260507003527 16 55 1.6 4.8 0.00 0.00 0.00 60 1014.5
20260507003036 16 55 1.6 6.4 0.00 0.00 0.00 60 1014.4
20260507002526 16 58 3.2 6.4 0.00 0.00 0.00 60 1014.4
20260507002027 16 59 3.2 6.4 0.00 0.00 0.00 59 1014.4
20260507001535 16 66 1.6 4.8 0.00 0.00 0.00 59 1014.6
20260507001026 16 65 1.6 3.2 0.00 0.00 0.00 60 1014.6
20260507000526 16 66 0.0 1.6 0.00 0.00 0.00 60 1014.7
20260507000036 16 0 0.0 1.6 0.00 0.00 0.00 60 1014.8
20260506235527 16 0 0.0 1.6 0.00 0.00 0.00 60 1014.9
20260506235026 16 0 0.0 3.2 0.00 0.00 0.00 59 1015.0
20260506234543 16 0 0.0 3.2 0.00 0.00 0.00 59 1015.1
20260506234026 16 66 1.6 3.2 0.00 0.00 0.00 58 1015.2
20260506233527 15 65 1.6 4.8 0.00 0.00 0.00 58 1015.2
20260506233034 15 65 1.6 4.8 0.00 0.00 0.00 58 1015.3
20260506232525 15 65 1.6 4.8 0.00 0.00 0.00 58 1015.3
20260506232027 15 64 1.6 4.8 0.00 0.00 0.00 58 1015.2
20260506231536 16 62 1.6 4.8 0.00 0.00 0.00 58 1015.4
20260506231026 15 61 1.6 4.8 0.00 0.00 0.00 58 1015.3
20260506230527 15 52 1.6 3.2 0.00 0.00 0.00 59 1015.3
20260506230034 16 0 0.0 0.0 0.00 0.00 0.00 58 1015.4
20260506225526 16 0 0.0 0.0 0.00 0.00 0.00 58 1015.3
20260506225026 16 0 0.0 0.0 0.00 0.00 0.00 59 1015.3
20260506224545 16 0 0.0 0.0 0.00 0.00 0.00 60 1015.3
20260506224027 16 0 0.0 0.0 0.00 0.00 0.00 59 1015.4
20260506223526 16 0 0.0 0.0 0.00 0.00 0.00 59 1015.5
20260506223035 16 0 0.0 0.0 0.00 0.00 0.00 59 1015.4
20260506222526 16 0 0.0 0.0 0.00 0.00 0.00 59 1015.5
20260506222027 16 0 0.0 0.0 0.00 0.00 0.00 58 1015.5
20260506221532 16 0 0.0 0.0 0.00 0.00 0.00 57 1015.5
20260506221026 17 0 0.0 0.0 0.00 0.00 0.00 56 1015.5
20260506220526 16 0 0.0 0.0 0.00 0.00 0.00 58 1015.4
20260506220038 16 0 0.0 1.6 0.00 0.00 0.00 57 1015.5
20260506215526 16 0 0.0 1.6 0.00 0.00 0.00 57 1015.6
20260506215025 16 0 0.0 3.2 0.00 0.00 0.00 58 1015.5
20260506214539 16 0 0.0 3.2 0.00 0.00 0.00 57 1015.6
20260506214027 16 24 1.6 3.2 0.00 0.00 0.00 57 1015.7
20260506213526 16 24 0.0 3.2 0.00 0.00 0.00 56 1015.7
20260506213035 17 0 0.0 0.0 0.00 0.00 0.00 55 1015.9
20260506212529 17 0 0.0 1.6 0.00 0.00 0.00 56 1015.8
20260506212030 17 0 0.0 1.6 0.00 0.00 0.00 55 1015.9
20260506211538 17 0 0.0 3.2 0.00 0.00 0.00 54 1015.9
20260506211026 17 0 0.0 4.8 0.00 0.00 0.00 54 1015.9
20260506210527 17 22 1.6 4.8 0.00 0.00 0.00 54 1015.9
20260506210040 17 16 1.6 3.2 0.00 0.00 0.00 54 1016.0
20260506205526 17 10 1.6 3.2 0.00 0.00 0.00 54 1016.1
20260506205026 17 360 0.0 3.2 0.00 0.00 0.00 53 1016.1
20260506204549 17 5 0.0 3.2 0.00 0.00 0.00 53 1016.0
20260506204025 17 5 0.0 3.2 0.00 0.00 0.00 53 1016.0
20260506203525 17 5 0.0 3.2 0.00 0.00 0.00 53 1016.0
20260506203037 17 0 0.0 3.2 0.00 0.00 0.00 53 1016.1
20260506202526 17 0 0.0 3.2 0.00 0.00 0.00 54 1016.1
20260506202029 17 9 0.0 3.2 0.00 0.00 0.00 54 1016.0
20260506201539 17 360 1.6 3.2 0.00 0.00 0.00 54 1015.9
20260506201026 17 360 1.6 3.2 0.00 0.00 0.00 54 1016.0
20260506200526 17 360 0.0 3.2 0.00 0.00 0.00 53 1015.9
20260506200036 18 0 0.0 1.6 0.00 0.00 0.00 54 1015.8
20260506195526 18 0 0.0 1.6 0.00 0.00 0.00 53 1015.8
20260506195026 18 0 0.0 1.6 0.00 0.00 0.00 53 1015.8